Location: Clanezzo
(45.7500°N, 9.6000°E)
Time: 23:58:42
(UTC+00:00)

Cosmos 1356 Rocket - Pass Details

Date: 12 May 2021
Orbit: 542 x 598 km, 81.2° (Epoch: 23 June)

Event Time Altitude Azimuth Distance (km) Brightness Sun altitude
Rises 22:43:31 0° 355° (N) 2,841 8.3 -25.4°
Reaches altitude 10° 22:45:50 10° 3° (N) 1,940 7.1 -25.5°
Enters shadow 22:49:38 41° 63° (ENE) 876 4.4 -25.6°
